Flag Weather past 2 weeks in Strasbourg, France

Now
43 °F

Fog.


Feels Like: 43 °F
Forecast: 40 / 49 °F
Wind: 2 mph from North

Location: Strasbourg Airport

Current Time: Nov 27, 2014 at 10:55:46 AM

Latest Report: Nov 27, 2014 at 10:30 AM


Visibility: 3 mi

Pressure: 29.80 "Hg

Humidity: 93%

Dew point: 41 °F

Location of StrasbourgLocation

Historic Weather in Strasbourg — Graph

°F

Strasbourg temperature yesterday

Maximum temperature yesterday: 48 °F (at 1:00 PM)
Minimum temperature yesterday: 43 °F (at 9:00 AM)
Average temperature yesterday: 45 °F

Past Weeks' High & Low Weather Summary

 TemperatureHumidityPressure
High55 °F (Nov 15, 1:30 PM)100% (Nov 12, 9:00 AM)30.27 "Hg (Nov 12, 9:00 AM)
Low39 °F (Nov 19, 9:30 PM)63% (Nov 19, 2:00 PM)29.56 "Hg (Nov 15, 3:30 AM)
Average46 °F93%29.95 "Hg
* Reported Nov 12 9:00 AM — Nov 27 9:30 AM, Strasbourg, Weather by CustomWeather, © 2014

Note: Actual official high and low records may vary slightly from our data, if they occured in-between our weather recording intervals... More about our weather records

Advertising

Strasbourg weather history for previous 24 hours

 ConditionsComfort  
Time TempWeatherWind HumidityBarometerVisibility
9:30 AM
Nov 27
43 °FLow clouds.3 mph93%29.80 "Hg4 mi
9:00 AM43 °FLow clouds.3 mph93%29.80 "Hg4 mi
8:30 AM43 °FLow clouds.3 mph93%29.80 "Hg4 mi
8:00 AM43 °FLow clouds.6 mph93%29.80 "Hg4 mi
7:30 AM43 °FLow clouds.6 mph87%29.80 "Hg4 mi
7:00 AM43 °FLow clouds.5 mph87%29.80 "Hg4 mi
6:30 AM43 °FLow clouds.3 mph93%29.83 "Hg5 mi
6:00 AM43 °FMostly cloudy.3 mph93%29.83 "Hg4 mi
5:30 AM43 °FMostly cloudy.3 mph93%29.83 "Hg5 mi
5:00 AM43 °FMostly cloudy.3 mph93%29.83 "Hg5 mi
4:30 AM43 °FOvercast.5 mph93%29.83 "Hg5 mi
3:30 AM43 °FMostly cloudy.5 mph93%29.86 "Hg5 mi
3:00 AM43 °FMostly cloudy.6 mph93%29.86 "Hg6 mi
2:30 AM43 °FOvercast.5 mph93%29.86 "Hg6 mi
2:00 AM43 °FPassing clouds.5 mph93%29.86 "Hg5 mi
1:30 AM43 °FMostly cloudy.3 mph93%29.89 "Hg6 mi
1:00 AM43 °FMostly cloudy.5 mph93%29.89 "Hg5 mi
12:30 AM43 °FOvercast.3 mph93%29.89 "Hg6 mi
12:00 AM43 °FDrizzle. Overcast.5 mph93%29.92 "Hg5 mi
11:30 PM
Nov 26
43 °FPassing clouds.5 mph93%29.92 "Hg6 mi
11:00 PM43 °FOvercast.5 mph93%29.92 "Hg5 mi
10:30 PM43 °FPassing clouds.3 mph93%29.92 "Hg6 mi
10:00 PM43 °FMostly cloudy.3 mph93%29.92 "Hg6 mi
9:30 PM43 °FOvercast.3 mph93%29.92 "Hg6 mi
9:00 PM43 °FClear.5 mph93%29.92 "Hg5 mi
8:30 PM43 °FClear.3 mph93%29.92 "Hg6 mi
8:00 PM43 °FPassing clouds.3 mph93%29.92 "Hg5 mi
7:30 PM43 °FClear.5 mph93%29.92 "Hg5 mi
7:00 PM45 °FLight rain. Clear.6 mph87%29.92 "Hg4 mi
6:30 PM45 °FMostly cloudy.5 mph87%29.95 "HgN/A
6:00 PM45 °FClear.5 mph87%29.95 "HgN/A
5:30 PM45 °FMostly cloudy.7 mph87%29.95 "HgN/A
5:00 PM46 °FClear.6 mph82%29.95 "HgN/A
4:30 PM46 °FMostly cloudy.6 mph82%29.95 "HgN/A
4:00 PM46 °FOvercast.5 mph87%29.95 "HgN/A
3:30 PM46 °FOvercast.6 mph87%29.95 "HgN/A
3:00 PM46 °FOvercast.6 mph87%29.95 "HgN/A
2:30 PM46 °FOvercast.5 mph87%29.95 "HgN/A
2:00 PM48 °FMore clouds than sun.3 mph82%29.95 "HgN/A
1:30 PM46 °FPartly sunny.2 mph87%29.98 "HgN/A
1:00 PM48 °FBroken clouds.5 mph82%29.98 "HgN/A
12:30 PM46 °FMore clouds than sun.5 mph82%29.98 "HgN/A
12:00 PM46 °FOvercast.5 mph82%29.98 "HgN/A
11:30 AM45 °FOvercast.5 mph87%29.98 "Hg6 mi
11:00 AM45 °FOvercast.5 mph87%30.01 "Hg6 mi
10:30 AM45 °FOvercast.5 mph87%30.01 "Hg6 mi
10:00 AM45 °FOvercast.3 mph87%30.01 "Hg6 mi
Weather by CustomWeather, © 2014

See weather overviewHow to use our weather pages